Location: Lecco
(45.8566°N, 9.3977°E)
Time: 17:32:44
(UTC+02:00)

Transit 4A - All Passes

Search period start: 16 July 2019 00:00
Search period end: 26 July 2019 00:00
Orbit: 862 x 982 km, 66.8° (Epoch: 16 July)

Date Brightness Start Highest point End Pass type
(mag) Time Alt. Az. Time Alt. Az. Time Alt. Az.
16 Jul - 02:26:32 10° SE 02:29:55 15° ESE 02:33:20 10° ENE visible
16 Jul - 04:08:57 10° SSW 04:15:18 81° ESE 04:21:46 10° NE visible
16 Jul - 05:57:05 10° W 06:02:26 27° NW 06:07:49 10° NNE daylight
16 Jul - 07:48:58 10° NNW 07:51:14 12° NNW 07:53:31 10° N daylight
16 Jul - 09:38:02 10° N 09:40:48 13° NNE 09:43:31 10° NE daylight
16 Jul - 11:23:44 10° NNW 11:29:23 32° NE 11:34:53 10° ESE daylight
16 Jul - 13:09:57 10° NW 13:16:12 62° WSW 13:22:14 10° SSE daylight
17 Jul - 02:34:12 10° SSE 02:38:55 22° ESE 02:43:42 10° ENE visible
17 Jul - 04:18:18 10° SW 04:24:41 75° NW 04:31:09 10° NNE visible
17 Jul - 06:07:22 10° W 06:12:11 22° NNW 06:17:01 10° NNE daylight
17 Jul - 07:59:39 10° NNW 08:01:17 11° N 08:02:54 10° N daylight
17 Jul - 09:47:16 10° NNW 09:50:45 15° NNE 09:54:13 10° NE daylight
17 Jul - 11:32:58 10° NNW 11:38:59 42° NE 11:44:50 10° ESE daylight
17 Jul - 13:19:30 10° NW 13:25:25 43° WSW 13:31:09 10° S daylight
18 Jul - 02:42:29 10° S 02:48:01 32° ESE 02:53:36 10° NE visible
18 Jul - 04:27:53 10° SW 04:34:07 55° NW 04:40:27 10° NNE visible
18 Jul - 06:17:50 10° WNW 06:22:01 18° NNW 06:26:12 10° NNE daylight
18 Jul - 08:10:01 10° NNW 08:11:20 11° N 08:12:40 10° NNE daylight
18 Jul - 09:56:28 10° NNW 10:00:40 18° NNE 10:04:47 10° ENE daylight
18 Jul - 11:42:15 10° NNW 11:48:31 56° NE 11:54:34 10° SE daylight
18 Jul - 13:29:12 10° NW 13:34:33 30° WSW 13:39:46 10° SSW daylight
19 Jul - 02:51:10 10° S 02:57:10 46° ESE 03:03:16 10° NE visible
19 Jul - 04:37:40 10° WSW 04:43:40 41° NW 04:49:44 10° NNE visible
19 Jul - 06:28:26 10° NW 06:31:55 15° NNW 06:35:25 10° NNE daylight
19 Jul - 08:19:47 10° N 08:21:24 11° N 08:23:02 10° NNE daylight
19 Jul - 10:05:40 10° NNW 10:10:29 22° NNE 10:15:13 10° E daylight
19 Jul - 11:51:35 10° NNW 11:57:57 77° NE 12:04:06 10° SE daylight
19 Jul - 13:39:10 10° WNW 13:43:36 21° WSW 13:47:57 10° SSW daylight
20 Jul - 01:19:29 10° ESE 01:21:15 11° E 01:23:02 10° E visible
20 Jul - 03:00:07 10° SSW 03:06:25 66° ESE 03:12:47 10° NE visible
20 Jul - 04:47:39 10° WSW 04:53:17 32° NW 04:58:58 10° NNE visible
20 Jul - 06:39:09 10° NW 06:41:54 13° NNW 06:44:38 10° N daylight
20 Jul - 08:29:10 10° N 08:31:26 12° NNE 08:33:42 10° NNE daylight
20 Jul - 10:14:53 10° NNW 10:20:14 27° NE 10:25:27 10° E daylight
20 Jul - 12:00:58 10° NW 12:07:18 77° WSW 12:13:25 10° SSE daylight
20 Jul - 13:49:44 10° WNW 13:52:35 13° W 13:55:24 10° SW daylight
21 Jul - 01:26:13 10° SE 01:30:13 18° ESE 01:34:14 10° ENE visible
21 Jul - 03:09:20 10° SSW 03:15:44 90° WNW 03:22:12 10° NNE visible
21 Jul - 04:57:49 10° W 05:02:59 25° NW 05:08:11 10° NNE visible
21 Jul - 06:49:54 10° NNW 06:51:55 11° N 06:53:55 10° N daylight
21 Jul - 08:38:26 10° N 08:41:27 13° NNE 08:44:25 10° NE daylight
21 Jul - 10:24:06 10° NNW 10:29:54 35° NE 10:35:31 10° ESE daylight
21 Jul - 12:10:26 10° NW 12:16:34 55° WSW 12:22:30 10° S daylight
22 Jul - 01:34:10 10° SSE 01:39:14 26° ESE 01:44:22 10° NE visible
22 Jul - 03:18:47 10° SW 03:25:08 67° NW 03:31:34 10° NNE visible
22 Jul - 05:08:10 10° WNW 05:12:46 20° NNW 05:17:23 10° NNE visible
22 Jul - 07:00:31 10° NNW 07:01:58 11° N 07:03:23 10° N daylight
22 Jul - 08:47:39 10° NNW 08:51:23 16° NNE 08:55:05 10° ENE daylight
22 Jul - 10:33:22 10° NNW 10:39:29 46° NE 10:45:23 10° ESE daylight
22 Jul - 12:20:02 10° NW 12:25:46 38° WSW 12:31:19 10° S daylight
23 Jul - 01:42:37 10° S 01:48:21 37° ESE 01:54:10 10° NE visible
23 Jul - 03:28:26 10° SW 03:34:37 49° NW 03:40:51 10° NNE visible
23 Jul - 05:18:41 10° WNW 05:22:38 16° NNW 05:26:34 10° NNE visible
23 Jul - 07:10:41 10° N 07:12:01 11° N 07:13:21 10° NNE daylight
23 Jul - 08:56:51 10° NNW 09:01:16 19° NNE 09:05:35 10° ENE daylight
23 Jul - 10:42:40 10° NNW 10:48:58 63° NE 10:55:04 10° SE daylight
23 Jul - 12:29:49 10° NW 12:34:52 26° WSW 12:39:48 10° SSW daylight
24 Jul - 01:51:24 10° S 01:57:32 53° ESE 02:03:46 10° NE visible
24 Jul - 03:38:17 10° WSW 03:44:10 37° NW 03:50:07 10° NNE visible
24 Jul - 05:29:21 10° NW 05:32:34 14° NNW 05:35:46 10° N daylight
24 Jul - 07:20:16 10° N 07:22:05 11° N 07:23:53 10° NNE daylight
24 Jul - 09:06:03 10° NNW 09:11:04 24° NE 09:15:57 10° E daylight
24 Jul - 10:52:01 10° NNW 10:58:23 86° ENE 11:04:31 10° SSE daylight
24 Jul - 12:39:56 10° WNW 12:43:53 18° WSW 12:47:46 10° SW daylight
25 Jul - 00:18:39 10° SE 00:21:31 13° E 00:24:24 10° ENE visible
25 Jul - 02:00:28 10° SSW 02:06:48 74° ESE 02:13:15 10° NE visible
25 Jul - 03:48:21 10° W 03:53:49 29° NW 03:59:20 10° NNE visible
25 Jul - 05:40:06 10° NW 05:42:33 12° NNW 05:45:00 10° N daylight
25 Jul - 07:29:35 10° N 07:32:06 12° NNE 07:34:35 10° NE daylight
25 Jul - 09:15:16 10° NNW 09:20:47 30° NE 09:26:08 10° E daylight
25 Jul - 11:01:26 10° NW 11:07:42 68° WSW 11:13:44 10° SSE daylight
25 Jul - 12:51:06 10° W 12:52:51 11° W 12:54:35 10° WSW daylight
